Year,Month,Day,Hour,Minute,Value (Times are PST for temperature in C)
2009,09,21,00,00,12.20
2009,09,21,00,01,12.20
2009,09,21,00,02,12.20
2009,09,21,00,03,12.20
2009,09,21,00,04,12.10
2009,09,21,00,05,12.10
2009,09,21,00,06,12.10
2009,09,21,00,07,12.10
2009,09,21,00,08,12.10
2009,09,21,00,09,12.10
2009,09,21,00,10,12.00
2009,09,21,00,11,12.00
2009,09,21,00,12,12.00
2009,09,21,00,13,12.00
2009,09,21,00,14,11.90
2009,09,21,00,15,11.90
2009,09,21,00,16,11.90
2009,09,21,00,17,11.90
2009,09,21,00,18,11.90
2009,09,21,00,19,11.90
2009,09,21,00,20,11.90
2009,09,21,00,21,11.80
2009,09,21,00,22,11.90
2009,09,21,00,23,11.90
2009,09,21,00,24,11.90
2009,09,21,00,25,11.90
2009,09,21,00,26,11.90
2009,09,21,00,27,11.90
2009,09,21,00,28,11.90
2009,09,21,00,29,11.80
2009,09,21,00,30,11.80
2009,09,21,00,31,11.80
2009,09,21,00,32,11.80
2009,09,21,00,33,11.80
2009,09,21,00,34,11.80
2009,09,21,00,35,11.80
2009,09,21,00,36,11.80
2009,09,21,00,37,11.80
2009,09,21,00,38,11.80
2009,09,21,00,39,11.80
2009,09,21,00,40,11.80
2009,09,21,00,41,11.80
2009,09,21,00,42,11.80
2009,09,21,00,43,11.80
2009,09,21,00,44,11.80
2009,09,21,00,45,11.90
2009,09,21,00,46,11.90
2009,09,21,00,47,11.90
2009,09,21,00,48,12.00
2009,09,21,00,49,12.00
2009,09,21,00,50,12.00
2009,09,21,00,51,12.10
2009,09,21,00,52,12.10
2009,09,21,00,53,12.20
2009,09,21,00,54,12.20
2009,09,21,00,55,12.30
2009,09,21,00,56,12.30
2009,09,21,00,57,12.30
2009,09,21,00,58,12.30
2009,09,21,00,59,12.40
2009,09,21,01,00,12.40
2009,09,21,01,01,12.40
2009,09,21,01,02,12.40
2009,09,21,01,03,12.50
2009,09,21,01,04,12.50
2009,09,21,01,05,12.50
2009,09,21,01,06,12.50
2009,09,21,01,07,12.50
2009,09,21,01,08,12.40
2009,09,21,01,09,12.40
2009,09,21,01,10,12.40
2009,09,21,01,11,12.40
2009,09,21,01,12,12.30
2009,09,21,01,13,12.30
2009,09,21,01,14,12.30
2009,09,21,01,15,12.20
2009,09,21,01,16,12.10
2009,09,21,01,17,12.10
2009,09,21,01,18,12.00
2009,09,21,01,19,12.00
2009,09,21,01,20,11.90
2009,09,21,01,21,11.80
2009,09,21,01,22,11.80
2009,09,21,01,23,11.80
2009,09,21,01,24,11.70
2009,09,21,01,25,11.70
2009,09,21,01,26,11.60
2009,09,21,01,27,11.60
2009,09,21,01,28,11.60
2009,09,21,01,29,11.60
2009,09,21,01,30,11.60
2009,09,21,01,31,11.60
2009,09,21,01,32,11.50
2009,09,21,01,33,11.40
2009,09,21,01,34,11.40
2009,09,21,01,35,11.40
2009,09,21,01,36,11.40
2009,09,21,01,37,11.40
2009,09,21,01,38,11.40
2009,09,21,01,39,11.30
2009,09,21,01,40,11.30
2009,09,21,01,41,11.30
2009,09,21,01,42,11.30
2009,09,21,01,43,11.20
2009,09,21,01,44,11.20
2009,09,21,01,45,11.20
2009,09,21,01,46,11.20
2009,09,21,01,47,11.20
2009,09,21,01,48,11.20
2009,09,21,01,49,11.10
2009,09,21,01,50,11.10
2009,09,21,01,51,11.10
2009,09,21,01,52,11.10
2009,09,21,01,53,11.10
2009,09,21,01,54,11.10
2009,09,21,01,55,11.10
2009,09,21,01,56,11.00
2009,09,21,01,57,10.90
2009,09,21,01,58,10.90
2009,09,21,01,59,10.90
2009,09,21,02,00,10.90
2009,09,21,02,01,11.00
2009,09,21,02,02,11.10
2009,09,21,02,03,11.10
2009,09,21,02,04,11.10
2009,09,21,02,05,11.10
2009,09,21,02,06,11.10
2009,09,21,02,07,11.10
2009,09,21,02,08,11.10
2009,09,21,02,09,11.10
2009,09,21,02,10,11.10
2009,09,21,02,11,11.10
2009,09,21,02,12,11.10
2009,09,21,02,13,11.10
2009,09,21,02,14,11.10
2009,09,21,02,15,11.10
2009,09,21,02,16,11.10
2009,09,21,02,17,11.10
2009,09,21,02,18,11.10
2009,09,21,02,19,11.10
2009,09,21,02,20,11.10
2009,09,21,02,21,11.10
2009,09,21,02,22,11.10
2009,09,21,02,23,11.10
2009,09,21,02,24,11.10
2009,09,21,02,25,11.10
2009,09,21,02,26,11.10
2009,09,21,02,27,11.10
2009,09,21,02,28,11.00
2009,09,21,02,29,10.90
2009,09,21,02,30,10.90
2009,09,21,02,31,10.90
2009,09,21,02,32,10.90
2009,09,21,02,33,10.90
2009,09,21,02,34,10.90
2009,09,21,02,35,10.90
2009,09,21,02,36,10.90
2009,09,21,02,37,10.90
2009,09,21,02,38,10.90
2009,09,21,02,39,10.90
2009,09,21,02,40,10.90
2009,09,21,02,41,10.90
2009,09,21,02,42,10.90
2009,09,21,02,43,10.90
2009,09,21,02,44,10.90
2009,09,21,02,45,10.90
2009,09,21,02,46,10.90
2009,09,21,02,47,10.90
2009,09,21,02,48,10.90
2009,09,21,02,49,10.90
2009,09,21,02,50,10.90
2009,09,21,02,51,10.90
2009,09,21,02,52,10.90
2009,09,21,02,53,10.90
2009,09,21,02,54,10.90
2009,09,21,02,55,10.90
2009,09,21,02,56,10.90
2009,09,21,02,57,10.90
2009,09,21,02,58,10.90
2009,09,21,02,59,10.90
2009,09,21,03,00,10.80
2009,09,21,03,01,10.80
2009,09,21,03,02,10.80
2009,09,21,03,03,10.80
2009,09,21,03,04,10.80
2009,09,21,03,05,10.80
2009,09,21,03,06,10.70
2009,09,21,03,07,10.70
2009,09,21,03,08,10.70
2009,09,21,03,09,10.70
2009,09,21,03,10,10.70
2009,09,21,03,11,10.60
2009,09,21,03,12,10.60
2009,09,21,03,13,10.60
2009,09,21,03,14,10.60
2009,09,21,03,15,10.60
2009,09,21,03,16,10.60
2009,09,21,03,17,10.60
2009,09,21,03,18,10.60
2009,09,21,03,19,10.60
2009,09,21,03,20,10.70
2009,09,21,03,21,10.70
2009,09,21,03,22,10.70
2009,09,21,03,23,10.70
2009,09,21,03,24,10.80
2009,09,21,03,25,10.80
2009,09,21,03,26,10.80
2009,09,21,03,27,10.80
2009,09,21,03,28,10.80
2009,09,21,03,29,10.80
2009,09,21,03,30,10.80
2009,09,21,03,31,10.80
2009,09,21,03,32,10.80
2009,09,21,03,33,10.80
2009,09,21,03,34,10.80
2009,09,21,03,35,10.80
2009,09,21,03,36,10.80
2009,09,21,03,37,10.80
2009,09,21,03,38,10.80
2009,09,21,03,39,10.80
2009,09,21,03,40,10.70
2009,09,21,03,41,10.70
2009,09,21,03,42,10.70
2009,09,21,03,43,10.70
2009,09,21,03,44,10.70
2009,09,21,03,45,10.70
2009,09,21,03,46,10.70
2009,09,21,03,47,10.70
2009,09,21,03,48,10.70
2009,09,21,03,49,10.70
2009,09,21,03,50,10.70
2009,09,21,03,51,10.70
2009,09,21,03,52,10.70
2009,09,21,03,53,10.60
2009,09,21,03,54,10.60
2009,09,21,03,55,10.60
2009,09,21,03,56,10.60
2009,09,21,03,57,10.60
2009,09,21,03,58,10.60
2009,09,21,03,59,10.60
2009,09,21,04,00,10.60
2009,09,21,04,01,10.60
2009,09,21,04,02,10.60
2009,09,21,04,03,10.60
2009,09,21,04,04,10.50
2009,09,21,04,05,10.40
2009,09,21,04,06,10.40
2009,09,21,04,07,10.40
2009,09,21,04,08,10.40
2009,09,21,04,09,10.40
2009,09,21,04,10,10.40
2009,09,21,04,11,10.40
2009,09,21,04,12,10.40
2009,09,21,04,13,10.40
2009,09,21,04,14,10.40
2009,09,21,04,15,10.40
2009,09,21,04,16,10.40
2009,09,21,04,17,10.40
2009,09,21,04,18,10.40
2009,09,21,04,19,10.40
2009,09,21,04,20,10.40
2009,09,21,04,21,10.40
2009,09,21,04,22,10.40
2009,09,21,04,23,10.40
2009,09,21,04,24,10.40
2009,09,21,04,25,10.40
2009,09,21,04,26,10.40
2009,09,21,04,27,10.40
2009,09,21,04,28,10.40
2009,09,21,04,29,10.40
2009,09,21,04,30,10.40
2009,09,21,04,31,10.40
2009,09,21,04,32,10.40
2009,09,21,04,33,10.40
2009,09,21,04,34,10.40
2009,09,21,04,35,10.60
2009,09,21,04,36,10.60
2009,09,21,04,37,10.60
2009,09,21,04,38,10.60
2009,09,21,04,39,10.60
2009,09,21,04,40,10.60
2009,09,21,04,41,10.60
2009,09,21,04,42,10.60
2009,09,21,04,43,10.70
2009,09,21,04,44,10.70
2009,09,21,04,45,10.70
2009,09,21,04,46,10.70
2009,09,21,04,47,10.70
2009,09,21,04,48,10.70
2009,09,21,04,49,10.70
2009,09,21,04,50,10.70
2009,09,21,04,51,10.70
2009,09,21,04,52,10.70
2009,09,21,04,53,10.60
2009,09,21,04,54,10.60
2009,09,21,04,55,10.60
2009,09,21,04,56,10.60
2009,09,21,04,57,10.60
2009,09,21,04,58,10.60
2009,09,21,04,59,10.60
2009,09,21,05,00,10.60
2009,09,21,05,01,10.60
2009,09,21,05,02,10.60
2009,09,21,05,03,10.60
2009,09,21,05,04,10.60
2009,09,21,05,05,10.60
2009,09,21,05,06,10.60
2009,09,21,05,07,10.50
2009,09,21,05,08,10.40
2009,09,21,05,09,10.40
2009,09,21,05,10,10.40
2009,09,21,05,11,10.40
2009,09,21,05,12,10.40
2009,09,21,05,13,10.40
2009,09,21,05,14,10.40
2009,09,21,05,15,10.40
2009,09,21,05,16,10.40
2009,09,21,05,17,10.40
2009,09,21,05,18,10.30
2009,09,21,05,19,10.30
2009,09,21,05,20,10.30
2009,09,21,05,21,10.30
2009,09,21,05,22,10.30
2009,09,21,05,23,10.20
2009,09,21,05,24,10.20
2009,09,21,05,25,10.20
2009,09,21,05,26,10.20
2009,09,21,05,27,10.20
2009,09,21,05,28,10.20
2009,09,21,05,29,10.10
2009,09,21,05,30,10.10
2009,09,21,05,31,10.10
2009,09,21,05,32,10.10
2009,09,21,05,33,10.10
2009,09,21,05,34,10.10
2009,09,21,05,35,10.10
2009,09,21,05,36,10.10
2009,09,21,05,37,10.10
2009,09,21,05,38,10.10
2009,09,21,05,39,10.10
2009,09,21,05,40,10.10
2009,09,21,05,41,10.10
2009,09,21,05,42,10.10
2009,09,21,05,43,10.10
2009,09,21,05,44,10.10
2009,09,21,05,45,10.10
2009,09,21,05,46,10.10
2009,09,21,05,47,10.10
2009,09,21,05,48,10.10
2009,09,21,05,49,10.10
2009,09,21,05,50,10.10
2009,09,21,05,51,10.10
2009,09,21,05,52,10.10
2009,09,21,05,53,10.10
2009,09,21,05,54,10.10
2009,09,21,05,55,10.10
2009,09,21,05,56,10.10
2009,09,21,05,57,10.10
2009,09,21,05,58,10.10
2009,09,21,05,59,10.10
2009,09,21,06,00,10.10
2009,09,21,06,01,10.10
2009,09,21,06,02,10.10
2009,09,21,06,03,10.10
2009,09,21,06,04,10.10
2009,09,21,06,05,10.10
2009,09,21,06,06,10.10
2009,09,21,06,07,10.10
2009,09,21,06,08,10.10
2009,09,21,06,09,10.10
2009,09,21,06,10,10.10
2009,09,21,06,11,10.10
2009,09,21,06,12,10.00
2009,09,21,06,13,9.90
2009,09,21,06,14,9.90
2009,09,21,06,15,9.90
2009,09,21,06,16,9.90
2009,09,21,06,17,9.90
2009,09,21,06,18,9.90
2009,09,21,06,19,9.90
2009,09,21,06,20,9.90
2009,09,21,06,21,9.90
2009,09,21,06,22,9.90
2009,09,21,06,23,9.90
2009,09,21,06,24,9.90
2009,09,21,06,25,9.90
2009,09,21,06,26,9.90
2009,09,21,06,27,9.80
2009,09,21,06,28,9.80
2009,09,21,06,29,9.80
2009,09,21,06,30,9.80
2009,09,21,06,31,9.80
2009,09,21,06,32,9.80
2009,09,21,06,33,9.80
2009,09,21,06,34,9.70
2009,09,21,06,35,9.70
2009,09,21,06,36,9.70
2009,09,21,06,37,9.70
2009,09,21,06,38,9.70
2009,09,21,06,39,9.70
2009,09,21,06,40,9.70
2009,09,21,06,41,9.70
2009,09,21,06,42,9.70
2009,09,21,06,43,9.70
2009,09,21,06,44,9.70
2009,09,21,06,45,9.70
2009,09,21,06,46,9.70
2009,09,21,06,47,9.70
2009,09,21,06,48,9.70
2009,09,21,06,49,9.70
2009,09,21,06,50,9.70
2009,09,21,06,51,9.70
2009,09,21,06,52,9.70
2009,09,21,06,53,9.70
2009,09,21,06,54,9.70
2009,09,21,06,55,9.70
2009,09,21,06,56,9.70
2009,09,21,06,57,9.70
2009,09,21,06,58,9.70
2009,09,21,06,59,9.70
2009,09,21,07,00,9.70
2009,09,21,07,01,9.80
2009,09,21,07,02,9.80
2009,09,21,07,03,9.80
2009,09,21,07,04,9.80
2009,09,21,07,05,9.80
2009,09,21,07,06,9.80
2009,09,21,07,07,9.80
2009,09,21,07,08,9.80
2009,09,21,07,09,9.80
2009,09,21,07,10,9.90
2009,09,21,07,11,9.90
2009,09,21,07,12,9.90
2009,09,21,07,13,10.10
2009,09,21,07,14,10.10
2009,09,21,07,15,10.20
2009,09,21,07,16,10.20
2009,09,21,07,17,10.30
2009,09,21,07,18,10.40
2009,09,21,07,19,10.40
2009,09,21,07,20,10.50
2009,09,21,07,21,10.60
2009,09,21,07,22,10.60
2009,09,21,07,23,10.70
2009,09,21,07,24,10.70
2009,09,21,07,25,10.80
2009,09,21,07,26,10.80
2009,09,21,07,27,10.80
2009,09,21,07,28,10.90
2009,09,21,07,29,10.90
2009,09,21,07,30,11.00
2009,09,21,07,31,11.10
2009,09,21,07,32,11.10
2009,09,21,07,33,11.10
2009,09,21,07,34,11.20
2009,09,21,07,35,11.20
2009,09,21,07,36,11.20
2009,09,21,07,37,11.30
2009,09,21,07,38,11.40
2009,09,21,07,39,11.40
2009,09,21,07,40,11.50
2009,09,21,07,41,11.60
2009,09,21,07,42,11.60
2009,09,21,07,43,11.70
2009,09,21,07,44,11.70
2009,09,21,07,45,11.80
2009,09,21,07,46,11.80
2009,09,21,07,47,11.80
2009,09,21,07,48,11.80
2009,09,21,07,49,11.80
2009,09,21,07,50,11.90
2009,09,21,07,51,11.90
2009,09,21,07,52,12.00
2009,09,21,07,53,12.00
2009,09,21,07,54,12.10
2009,09,21,07,55,12.10
2009,09,21,07,56,12.20
2009,09,21,07,57,12.30
2009,09,21,07,58,12.30
2009,09,21,07,59,12.40
2009,09,21,08,00,12.40
2009,09,21,08,01,12.50
2009,09,21,08,02,12.60
2009,09,21,08,03,12.70
2009,09,21,08,04,12.70
2009,09,21,08,05,12.80
2009,09,21,08,06,12.80
2009,09,21,08,07,12.90
2009,09,21,08,08,13.00
2009,09,21,08,09,13.00
2009,09,21,08,10,13.10
2009,09,21,08,11,13.10
2009,09,21,08,12,13.20
2009,09,21,08,13,13.20
2009,09,21,08,14,13.30
2009,09,21,08,15,13.30
2009,09,21,08,16,13.30
2009,09,21,08,17,13.30
2009,09,21,08,18,13.30
2009,09,21,08,19,13.30
2009,09,21,08,20,13.30
2009,09,21,08,21,13.30
2009,09,21,08,22,13.30
2009,09,21,08,23,13.30
2009,09,21,08,24,13.30
2009,09,21,08,25,13.30
2009,09,21,08,26,13.30
2009,09,21,08,27,13.40
2009,09,21,08,28,13.40
2009,09,21,08,29,13.50
2009,09,21,08,30,13.50
2009,09,21,08,31,13.60
2009,09,21,08,32,13.60
2009,09,21,08,33,13.60
2009,09,21,08,34,13.70
2009,09,21,08,35,13.70
2009,09,21,08,36,13.70
2009,09,21,08,37,13.80
2009,09,21,08,38,13.90
2009,09,21,08,39,13.90
2009,09,21,08,40,13.90
2009,09,21,08,41,14.00
2009,09,21,08,42,14.00
2009,09,21,08,43,14.10
2009,09,21,08,44,14.10
2009,09,21,08,45,14.20
2009,09,21,08,46,14.20
2009,09,21,08,47,14.20
2009,09,21,08,48,14.30
2009,09,21,08,49,14.40
2009,09,21,08,50,14.40
2009,09,21,08,51,14.40
2009,09,21,08,52,14.40
2009,09,21,08,53,14.40
2009,09,21,08,54,14.40
2009,09,21,08,55,14.50
2009,09,21,08,56,14.50
2009,09,21,08,57,14.50
2009,09,21,08,58,14.50
2009,09,21,08,59,14.50
2009,09,21,09,00,14.60
2009,09,21,09,01,14.60
2009,09,21,09,02,14.60
2009,09,21,09,03,14.60
2009,09,21,09,04,14.60
2009,09,21,09,05,14.50
2009,09,21,09,06,14.50
2009,09,21,09,07,14.40
2009,09,21,09,08,14.50
2009,09,21,09,09,14.40
2009,09,21,09,10,14.40
2009,09,21,09,11,14.40
2009,09,21,09,12,14.40
2009,09,21,09,13,14.50
2009,09,21,09,14,14.50
2009,09,21,09,15,14.50
2009,09,21,09,16,14.50
2009,09,21,09,17,14.50
2009,09,21,09,18,14.40
2009,09,21,09,19,14.40
2009,09,21,09,20,14.40
2009,09,21,09,21,14.40
2009,09,21,09,22,14.40
2009,09,21,09,23,14.50
2009,09,21,09,24,14.50
2009,09,21,09,25,14.50
2009,09,21,09,26,14.60
2009,09,21,09,27,14.60
2009,09,21,09,28,14.70
2009,09,21,09,29,14.70
2009,09,21,09,30,14.70
2009,09,21,09,31,14.80
2009,09,21,09,32,14.80
2009,09,21,09,33,14.80
2009,09,21,09,34,14.80
2009,09,21,09,35,14.80
2009,09,21,09,36,14.80
2009,09,21,09,37,14.80
2009,09,21,09,38,14.80
2009,09,21,09,39,14.80
2009,09,21,09,40,14.80
2009,09,21,09,41,14.80
2009,09,21,09,42,14.80
2009,09,21,09,43,14.80
2009,09,21,09,44,14.80
2009,09,21,09,45,14.80
2009,09,21,09,46,14.80
2009,09,21,09,47,14.80
2009,09,21,09,48,14.80
2009,09,21,09,49,14.90
2009,09,21,09,50,15.00
2009,09,21,09,51,15.00
2009,09,21,09,52,15.10
2009,09,21,09,53,15.20
2009,09,21,09,54,15.20
2009,09,21,09,55,15.20
2009,09,21,09,56,15.20
2009,09,21,09,57,15.10
2009,09,21,09,58,15.10
2009,09,21,09,59,15.20
2009,09,21,10,00,15.20
2009,09,21,10,01,15.20
2009,09,21,10,02,15.30
2009,09,21,10,03,15.30
2009,09,21,10,04,15.30
2009,09,21,10,05,15.30
2009,09,21,10,06,15.30
2009,09,21,10,07,15.30
2009,09,21,10,08,15.30
2009,09,21,10,09,15.30
2009,09,21,10,10,15.30
2009,09,21,10,11,15.30
2009,09,21,10,12,15.30
2009,09,21,10,13,15.30
2009,09,21,10,14,15.30
2009,09,21,10,15,15.30
2009,09,21,10,16,15.30
2009,09,21,10,17,15.30
2009,09,21,10,18,15.30
2009,09,21,10,19,15.30
2009,09,21,10,20,15.30
2009,09,21,10,21,15.30
2009,09,21,10,22,15.40
2009,09,21,10,23,15.50
2009,09,21,10,24,15.60
2009,09,21,10,25,15.60
2009,09,21,10,26,15.60
2009,09,21,10,27,15.60
2009,09,21,10,28,15.60
2009,09,21,10,29,15.60
2009,09,21,10,30,15.60
2009,09,21,10,31,15.60
2009,09,21,10,32,15.60
2009,09,21,10,33,15.60
2009,09,21,10,34,15.60
2009,09,21,10,35,15.60
2009,09,21,10,36,15.60
2009,09,21,10,37,15.70
2009,09,21,10,38,15.70
2009,09,21,10,39,15.70
2009,09,21,10,40,15.70
2009,09,21,10,41,15.80
2009,09,21,10,42,15.80
2009,09,21,10,43,15.80
2009,09,21,10,44,15.80
2009,09,21,10,45,15.80
2009,09,21,10,46,15.80
2009,09,21,10,47,15.80
2009,09,21,10,48,15.80
2009,09,21,10,49,15.80
2009,09,21,10,50,15.80
2009,09,21,10,51,15.80
2009,09,21,10,52,15.80
2009,09,21,10,53,15.80
2009,09,21,10,54,15.90
2009,09,21,10,55,15.90
2009,09,21,10,56,16.10
2009,09,21,10,57,16.10
2009,09,21,10,58,16.10
2009,09,21,10,59,16.10
2009,09,21,11,00,16.20
2009,09,21,11,01,16.20
2009,09,21,11,02,16.30
2009,09,21,11,03,16.30
2009,09,21,11,04,16.20
2009,09,21,11,05,16.20
2009,09,21,11,06,16.20
2009,09,21,11,07,16.20
2009,09,21,11,08,16.20
2009,09,21,11,09,16.20
2009,09,21,11,10,16.20
2009,09,21,11,11,16.20
2009,09,21,11,12,16.20
2009,09,21,11,13,16.30
2009,09,21,11,14,16.30
2009,09,21,11,15,16.40
2009,09,21,11,16,16.40
2009,09,21,11,17,16.40
2009,09,21,11,18,16.50
2009,09,21,11,19,16.60
2009,09,21,11,20,16.70
2009,09,21,11,21,16.70
2009,09,21,11,22,16.80
2009,09,21,11,23,16.90
2009,09,21,11,24,16.90
2009,09,21,11,25,17.00
2009,09,21,11,26,17.00
2009,09,21,11,27,17.10
2009,09,21,11,28,17.10
2009,09,21,11,29,17.00
2009,09,21,11,30,16.90
2009,09,21,11,31,16.90
2009,09,21,11,32,16.90
2009,09,21,11,33,17.00
2009,09,21,11,34,16.90
2009,09,21,11,35,16.90
2009,09,21,11,36,17.00
2009,09,21,11,37,17.00
2009,09,21,11,38,17.00
2009,09,21,11,39,17.00
2009,09,21,11,40,16.90
2009,09,21,11,41,16.90
2009,09,21,11,42,16.80
2009,09,21,11,43,16.80
2009,09,21,11,44,16.80
2009,09,21,11,45,16.80
2009,09,21,11,46,16.80
2009,09,21,11,47,16.80
2009,09,21,11,48,16.80
2009,09,21,11,49,16.80
2009,09,21,11,50,16.70
2009,09,21,11,51,16.70
2009,09,21,11,52,16.70
2009,09,21,11,53,16.70
2009,09,21,11,54,16.70
2009,09,21,11,55,16.70
2009,09,21,11,56,16.70
2009,09,21,11,57,16.70
2009,09,21,11,58,16.70
2009,09,21,11,59,16.70
2009,09,21,12,00,16.70
2009,09,21,12,01,16.70
2009,09,21,12,02,16.70
2009,09,21,12,03,16.80
2009,09,21,12,04,16.80
2009,09,21,12,05,16.80
2009,09,21,12,06,16.90
2009,09,21,12,07,17.00
2009,09,21,12,08,17.10
2009,09,21,12,09,17.20
2009,09,21,12,10,17.30
2009,09,21,12,11,17.20
2009,09,21,12,12,17.20
2009,09,21,12,13,17.10
2009,09,21,12,14,17.10
2009,09,21,12,15,17.00
2009,09,21,12,16,17.00
2009,09,21,12,17,17.00
2009,09,21,12,18,17.00
2009,09,21,12,19,17.10
2009,09,21,12,20,17.30
2009,09,21,12,21,17.30
2009,09,21,12,22,17.30
2009,09,21,12,23,17.30
2009,09,21,12,24,17.30
2009,09,21,12,25,17.30
2009,09,21,12,26,17.30
2009,09,21,12,27,17.20
2009,09,21,12,28,17.20
2009,09,21,12,29,17.20
2009,09,21,12,30,17.10
2009,09,21,12,31,17.10
2009,09,21,12,32,17.10
2009,09,21,12,33,17.10
2009,09,21,12,34,17.20
2009,09,21,12,35,17.30
2009,09,21,12,36,17.30
2009,09,21,12,37,17.30
2009,09,21,12,38,17.30
2009,09,21,12,39,17.30
2009,09,21,12,40,17.40
2009,09,21,12,41,17.40
2009,09,21,12,42,17.40
2009,09,21,12,43,17.40
2009,09,21,12,44,17.40
2009,09,21,12,45,17.40
2009,09,21,12,46,17.40
2009,09,21,12,47,17.30
2009,09,21,12,48,17.30
2009,09,21,12,49,17.30
2009,09,21,12,50,17.30
2009,09,21,12,51,17.30
2009,09,21,12,52,17.40
2009,09,21,12,53,17.50
2009,09,21,12,54,17.50
2009,09,21,12,55,17.50
2009,09,21,12,56,17.60
2009,09,21,12,57,17.60
2009,09,21,12,58,17.60
2009,09,21,12,59,17.60
2009,09,21,13,00,17.70
2009,09,21,13,01,17.80
2009,09,21,13,02,17.90
2009,09,21,13,03,17.90
2009,09,21,13,04,18.00
2009,09,21,13,05,18.10
2009,09,21,13,06,18.10
2009,09,21,13,07,18.10
2009,09,21,13,08,18.20
2009,09,21,13,09,18.20
2009,09,21,13,10,18.20
2009,09,21,13,11,18.20
2009,09,21,13,12,18.20
2009,09,21,13,13,18.20
2009,09,21,13,14,18.20
2009,09,21,13,15,18.20
2009,09,21,13,16,18.20
2009,09,21,13,17,18.20
2009,09,21,13,18,18.30
2009,09,21,13,19,18.40
2009,09,21,13,20,18.40
2009,09,21,13,21,18.40
2009,09,21,13,22,18.40
2009,09,21,13,23,18.30
2009,09,21,13,24,18.40
2009,09,21,13,25,18.40
2009,09,21,13,26,18.40
2009,09,21,13,27,18.50
2009,09,21,13,28,18.50
2009,09,21,13,29,18.50
2009,09,21,13,30,18.50
2009,09,21,13,31,18.60
2009,09,21,13,32,18.60
2009,09,21,13,33,18.70
2009,09,21,13,34,18.70
2009,09,21,13,35,18.70
2009,09,21,13,36,18.70
2009,09,21,13,37,18.70
2009,09,21,13,38,18.60
2009,09,21,13,39,18.60
2009,09,21,13,40,18.50
2009,09,21,13,41,18.50
2009,09,21,13,42,18.50
2009,09,21,13,43,18.50
2009,09,21,13,44,18.50
2009,09,21,13,45,18.50
2009,09,21,13,46,18.50
2009,09,21,13,47,18.50
2009,09,21,13,48,18.40
2009,09,21,13,49,18.50
2009,09,21,13,50,18.50
2009,09,21,13,51,18.50
2009,09,21,13,52,18.50
2009,09,21,13,53,18.50
2009,09,21,13,54,18.50
2009,09,21,13,55,18.60
2009,09,21,13,56,18.60
2009,09,21,13,57,18.50
2009,09,21,13,58,18.50
2009,09,21,13,59,18.40
2009,09,21,14,00,18.40
2009,09,21,14,01,18.40
2009,09,21,14,02,18.40
2009,09,21,14,03,18.40
2009,09,21,14,04,18.50
2009,09,21,14,05,18.50
2009,09,21,14,06,18.50
2009,09,21,14,07,18.50
2009,09,21,14,08,18.60
2009,09,21,14,09,18.60
2009,09,21,14,10,18.60
2009,09,21,14,11,18.60
2009,09,21,14,12,18.60
2009,09,21,14,13,18.60
2009,09,21,14,14,18.60
2009,09,21,14,15,18.60
2009,09,21,14,16,18.60
2009,09,21,14,17,18.60
2009,09,21,14,18,18.70
2009,09,21,14,19,18.70
2009,09,21,14,20,18.70
2009,09,21,14,21,18.60
2009,09,21,14,22,18.70
2009,09,21,14,23,18.60
2009,09,21,14,24,18.60
2009,09,21,14,25,18.60
2009,09,21,14,26,18.60
2009,09,21,14,27,18.60
2009,09,21,14,28,18.60
2009,09,21,14,29,18.60
2009,09,21,14,30,18.60
2009,09,21,14,31,18.60
2009,09,21,14,32,18.60
2009,09,21,14,33,18.60
2009,09,21,14,34,18.60
2009,09,21,14,35,18.60
2009,09,21,14,36,18.60
2009,09,21,14,37,18.70
2009,09,21,14,38,18.80
2009,09,21,14,39,18.90
2009,09,21,14,40,18.90
2009,09,21,14,41,18.90
2009,09,21,14,42,18.90
2009,09,21,14,43,18.90
2009,09,21,14,44,18.90
2009,09,21,14,45,18.80
2009,09,21,14,46,18.80
2009,09,21,14,47,18.80
2009,09,21,14,48,18.80
2009,09,21,14,49,18.70
2009,09,21,14,50,18.70
2009,09,21,14,51,18.70
2009,09,21,14,52,18.70
2009,09,21,14,53,18.80
2009,09,21,14,54,18.70
2009,09,21,14,55,18.80
2009,09,21,14,56,18.80
2009,09,21,14,57,18.80
2009,09,21,14,58,18.80
2009,09,21,14,59,18.70
2009,09,21,15,00,18.70
2009,09,21,15,01,18.70
2009,09,21,15,02,18.70
2009,09,21,15,03,18.70
2009,09,21,15,04,18.70
2009,09,21,15,05,18.80
2009,09,21,15,06,18.70
2009,09,21,15,07,18.80
2009,09,21,15,08,18.80
2009,09,21,15,09,18.90
2009,09,21,15,10,18.90
2009,09,21,15,11,18.90
2009,09,21,15,12,18.90
2009,09,21,15,13,19.00
2009,09,21,15,14,19.10
2009,09,21,15,15,19.10
2009,09,21,15,16,19.10
2009,09,21,15,17,19.20
2009,09,21,15,18,19.30
2009,09,21,15,19,19.30
2009,09,21,15,20,19.30
2009,09,21,15,21,19.30
2009,09,21,15,22,19.30
2009,09,21,15,23,19.30
2009,09,21,15,24,19.30
2009,09,21,15,25,19.30
2009,09,21,15,26,19.40
2009,09,21,15,27,19.40
2009,09,21,15,28,19.50
2009,09,21,15,29,19.50
2009,09,21,15,30,19.60
2009,09,21,15,31,19.70
2009,09,21,15,32,19.80
2009,09,21,15,33,19.90
2009,09,21,15,34,19.90
2009,09,21,15,35,19.90
2009,09,21,15,36,19.90
2009,09,21,15,37,19.80
2009,09,21,15,38,19.80
2009,09,21,15,39,19.70
2009,09,21,15,40,19.70
2009,09,21,15,41,19.70
2009,09,21,15,42,19.70
2009,09,21,15,43,19.70
2009,09,21,15,44,19.70
2009,09,21,15,45,19.70
2009,09,21,15,46,19.70
2009,09,21,15,47,19.80
2009,09,21,15,48,19.80
2009,09,21,15,49,19.80
2009,09,21,15,50,19.70
2009,09,21,15,51,19.70
2009,09,21,15,52,19.70
2009,09,21,15,53,19.60
2009,09,21,15,54,19.60
2009,09,21,15,55,19.60
2009,09,21,15,56,19.60
2009,09,21,15,57,19.50
2009,09,21,15,58,19.60
2009,09,21,15,59,19.60
2009,09,21,16,00,19.60
2009,09,21,16,01,19.60
2009,09,21,16,02,19.60
2009,09,21,16,03,19.60
2009,09,21,16,04,19.60
2009,09,21,16,05,19.50
2009,09,21,16,06,19.50
2009,09,21,16,07,19.60
2009,09,21,16,08,19.60
2009,09,21,16,09,19.60
2009,09,21,16,10,19.60
2009,09,21,16,11,19.60
2009,09,21,16,12,19.60
2009,09,21,16,13,19.60
2009,09,21,16,14,19.60
2009,09,21,16,15,19.60
2009,09,21,16,16,19.60
2009,09,21,16,17,19.70
2009,09,21,16,18,19.70
2009,09,21,16,19,19.80
2009,09,21,16,20,19.80
2009,09,21,16,21,19.80
2009,09,21,16,22,19.80
2009,09,21,16,23,19.80
2009,09,21,16,24,19.80
2009,09,21,16,25,19.80
2009,09,21,16,26,19.80
2009,09,21,16,27,19.80
2009,09,21,16,28,19.80
2009,09,21,16,29,19.80
2009,09,21,16,30,19.80
2009,09,21,16,31,19.70
2009,09,21,16,32,19.70
2009,09,21,16,33,19.70
2009,09,21,16,34,19.60
2009,09,21,16,35,19.60
2009,09,21,16,36,19.60
2009,09,21,16,37,19.50
2009,09,21,16,38,19.50
2009,09,21,16,39,19.50
2009,09,21,16,40,19.50
2009,09,21,16,41,19.50
2009,09,21,16,42,19.50
2009,09,21,16,43,19.50
2009,09,21,16,44,19.50
2009,09,21,16,45,19.60
2009,09,21,16,46,19.60
2009,09,21,16,47,19.60
2009,09,21,16,48,19.60
2009,09,21,16,49,19.60
2009,09,21,16,50,19.60
2009,09,21,16,51,19.60
2009,09,21,16,52,19.60
2009,09,21,16,53,19.60
2009,09,21,16,54,19.60
2009,09,21,16,55,19.60
2009,09,21,16,56,19.60
2009,09,21,16,57,19.70
2009,09,21,16,58,19.70
2009,09,21,16,59,19.80
2009,09,21,17,00,19.80
2009,09,21,17,01,19.70
2009,09,21,17,02,19.70
2009,09,21,17,03,19.60
2009,09,21,17,04,19.60
2009,09,21,17,05,19.60
2009,09,21,17,06,19.60
2009,09,21,17,07,19.60
2009,09,21,17,08,19.60
2009,09,21,17,09,19.60
2009,09,21,17,10,19.60
2009,09,21,17,11,19.60
2009,09,21,17,12,19.60
2009,09,21,17,13,19.60
2009,09,21,17,14,19.60
2009,09,21,17,15,19.60
2009,09,21,17,16,19.60
2009,09,21,17,17,19.60
2009,09,21,17,18,19.60
2009,09,21,17,19,19.60
2009,09,21,17,20,19.60
2009,09,21,17,21,19.50
2009,09,21,17,22,19.50